Location: Riverton
(43.0250°N, 108.3790°W)
Time: 05:49:59
(UTC-06:00)

Amateur Radio Satellites - All Passes

Search period start: 03 May 2015 05:19
Search period end: 04 May 2015 05:19
Location: Riverton, 43.0250°N, 108.3790°W

Satellite Date Start Highest point End Downlink Frequencies (MHz)
Time Altitude Azimuth
M-CUBED/EXP-1 PRIME 03 May 05:22:34 05:25:43 18° 59° (ENE) 05:28:58 437.505
CUSAT 1 03 May 05:26:30 05:32:45 24° 275° (W) 05:38:42 437.405
HORYU 2 03 May 05:28:56 05:33:19 51° 288° (WNW) 05:37:37 437.375
AO-7 03 May 05:31:26 05:39:48 77° 106° (ESE) 05:48:10 29.400- 29.500
Gurwin Techsat 1B 03 May 05:36:51 05:39:40 14° 301° (WNW) 05:42:15 435.225
Cosmos 2499 03 May 05:37:34 05:45:12 88° 82° (E) 05:52:20 435.465 / 435.565
AUBIESAT-1 03 May 05:55:44 05:59:54 32° 64° (ENE) 06:04:02 437.475
JAS-2 03 May 05:59:26 06:05:15 52° 290° (WNW) 06:10:28 435.910
O/OREOS (USA 219) 03 May 06:00:13 06:03:30 20° 53° (NE) 06:06:52 437.305
MOZHAYETS 4 03 May 06:21:11 06:24:11 16° 271° (W) 06:27:00
CUTE-I 03 May 06:29:29 06:33:00 18° 90° (E) 06:36:43 437.470
Cubesat XI-IV 03 May 06:41:15 06:45:25 24° 92° (E) 06:49:43 437.490
CUBESAT XI-V 03 May 06:42:06 06:46:42 76° 76° (ENE) 06:51:19 437.345
PRISM 03 May 06:50:29 06:54:32 55° 73° (ENE) 06:58:35 437.425
M-CUBED/EXP-1 PRIME 03 May 06:55:23 07:00:11 62° 255° (WSW) 07:04:53 437.505
STRAND 1 03 May 06:56:29 07:01:25 53° 71° (ENE) 07:06:23 437.568
PCSat 03 May 07:03:28 07:08:47 61° 116° (ESE) 07:14:10 145.827
AO-7 03 May 07:25:11 07:31:56 28° 305° (NW) 07:38:28 29.400- 29.500
AUBIESAT-1 03 May 07:30:19 07:34:37 32° 259° (W) 07:38:47 437.475
Cosmos 2499 03 May 07:32:56 07:37:16 16° 281° (WNW) 07:41:04 435.465 / 435.565
O/OREOS (USA 219) 03 May 07:38:55 07:43:13 46° 252° (WSW) 07:47:28 437.305
BEESAT 3 03 May 08:07:02 08:07:36 10° 32° (NNE) 08:08:19 437.485
CUTE-I 03 May 08:08:19 08:13:33 60° 288° (WNW) 08:18:47 437.470
BEESAT 2 03 May 08:19:01 08:20:14 11° 33° (NNE) 08:21:36 435.950
Cubesat XI-IV 03 May 08:20:42 08:25:47 46° 290° (WNW) 08:30:51 437.490
CUBESAT XI-V 03 May 08:23:21 08:24:48 11° 274° (W) 08:25:58 437.345
BRITE-PL 03 May 08:24:51 08:28:53 22° 91° (E) 08:33:13 437.365/2234.400
PRISM 03 May 08:28:25 08:30:24 13° 270° (W) 08:32:11 437.425
Cosmos 2491 03 May 08:33:36 08:41:18 33° 67° (ENE) 08:49:08 435.465 / 435.565
STRAND 1 03 May 08:37:19 08:41:00 19° 269° (W) 08:44:32 437.568
PCSat 03 May 08:48:15 08:52:40 24° 316° (NW) 08:57:01 145.827
SEEDS 03 May 08:53:16 08:53:51 10° 87° (E) 08:54:42 437.485
ISS 03 May 08:56:06 08:58:40 22° 136° (SE) 09:01:17 145.825
SO-50 03 May 09:00:38 09:02:58 14° 109° (ESE) 09:05:33 436.795
DOVE 4 03 May 09:02:14 09:06:08 21° 90° (E) 09:10:12 437.250
GOMX 1 03 May 09:06:19 09:11:08 34° 95° (E) 09:16:07 467.674
CANX-2 03 May 09:13:54 09:17:23 25° 93° (E) 09:20:56 2200.000
CUTE 1.7 + AOD 2 03 May 09:21:36 09:25:13 27° 94° (E) 09:28:52 437.475
TIGRISAT 03 May 09:30:54 09:32:25 12° 60° (ENE) 09:34:09 435.000
YUBILEINY 03 May 09:37:37 09:44:59 33° 85° (E) 09:52:34 435.215
UNISAT 6 03 May 09:38:12 09:40:34 14° 62° (ENE) 09:43:10 437.425
HO-68 03 May 09:39:15 09:46:10 49° 99° (E) 09:53:05 435.675
BEESAT 3 03 May 09:42:28 09:46:32 59° 53° (NE) 09:50:32 437.485
COMPASS 1 03 May 09:47:05 09:50:54 34° 96° (E) 09:54:43 437.405
BEESAT 2 03 May 09:55:05 09:59:13 66° 54° (NE) 10:03:16 435.950
BRITE-PL 03 May 10:02:27 10:07:41 55° 287° (WNW) 10:13:09 437.365/2234.400
POLYITAN 1 03 May 10:05:54 10:07:25 12° 62° (ENE) 10:09:08 437.675
AIST 2 03 May 10:11:06 10:14:58 33° 47° (NE) 10:18:49 435.215
QB50P1 03 May 10:18:17 10:20:46 16° 64° (ENE) 10:23:24 145.935-145.965
ANTELSAT 03 May 10:18:31 10:22:40 34° 69° (ENE) 10:26:56 437.575/2403.000
CINEMA 3 03 May 10:19:56 10:24:54 58° 99° (E) 10:29:51 145.822/145.860
AAUSAT CUBESAT 2 03 May 10:22:06 10:26:18 74° 102° (ESE) 10:30:26 437.432
SEEDS 03 May 10:26:01 10:30:15 69° 285° (WNW) 10:34:24 437.485
Cosmos 2491 03 May 10:30:05 10:38:43 59° 269° (W) 10:47:16 435.465 / 435.565
ISS 03 May 10:31:40 10:34:50 49° 333° (NNW) 10:38:01 145.825
DELFI C3 03 May 10:36:50 10:40:33 35° 97° (E) 10:44:16 145.870
SO-50 03 May 10:38:16 10:42:56 73° 305° (NW) 10:47:48 436.795
DOVE 4 03 May 10:39:04 10:44:11 53° 288° (WNW) 10:49:20 437.250
GOMX 1 03 May 10:44:24 10:49:13 35° 291° (WNW) 10:54:06 467.674
BUGSAT 1 03 May 10:44:28 10:47:18 19° 66° (ENE) 10:50:16 437.445
UKube-1 03 May 10:44:31 10:47:20 17° 91° (E) 10:50:17 .
QB50P2 03 May 10:46:11 10:49:53 30° 69° (ENE) 10:53:40 145.880/145.840
CANX-2 03 May 10:49:36 10:53:21 30° 290° (WNW) 10:57:01 2200.000
FUNcube-1 03 May 10:52:26 10:56:46 41° 97° (E) 11:01:03 145.935
CUTE 1.7 + AOD 2 03 May 10:57:28 11:01:07 27° 291° (WNW) 11:04:40 437.475
NANOSAT C BR1 03 May 10:57:50 11:01:44 39° 71° (ENE) 11:05:44 145.865
CUBEBUG 2 03 May 10:58:06 11:02:54 74° 101° (E) 11:07:36 437.445
Oscar 11 03 May 11:00:25 11:04:47 89° 100° (E) 11:09:06 145.826/435.025
TIGRISAT 03 May 11:03:52 11:08:30 87° 261° (W) 11:13:13 435.000
POPSAT HIP 1 03 May 11:04:57 11:09:00 47° 72° (ENE) 11:13:07 437.405
UWE-3 03 May 11:05:57 11:10:40 73° 102° (ESE) 11:15:17 435.000/436.395/437.385
UNISAT 6 03 May 11:12:13 11:16:49 70° 258° (WSW) 11:21:32 437.425
AIST 1 03 May 11:13:29 11:17:44 62° 79° (E) 11:22:00
ZACube-1 03 May 11:21:18 11:25:56 84° 103° (ESE) 11:30:28 437.345
BEESAT 3 03 May 11:21:57 11:24:07 14° 249° (WSW) 11:26:05 437.485
COMPASS 1 03 May 11:23:10 11:26:24 21° 293° (WNW) 11:29:32 437.405
HO-68 03 May 11:27:20 11:33:44 35° 298° (WNW) 11:40:00 435.675
DUCHIFAT 1 03 May 11:28:39 11:32:51 85° 80° (E) 11:37:08 145.980
YUBILEINY 03 May 11:32:45 11:41:26 58° 284° (WNW) 11:50:04 435.215
BEESAT 2 03 May 11:35:02 11:36:51 12° 250° (WSW) 11:38:27 435.950
CUBEBUG 1 03 May 11:35:22 11:37:56 16° 90° (E) 11:40:40 437.445
POLYITAN 1 03 May 11:38:34 11:42:48 72° 257° (WSW) 11:47:06 437.675
HUMSAT D 03 May 11:42:06 11:46:26 68° 101° (E) 11:50:40 437.325/437.525
DX 1 03 May 11:48:47 11:53:11 89° 254° (WSW) 11:57:34 434.975-435.025
ESTCUBE 1 03 May 11:48:56 11:52:36 25° 94° (E) 11:56:19 437.505/2401.250
AIST 2 03 May 11:49:52 11:53:28 27° 245° (WSW) 11:56:58 435.215
QB50P1 03 May 11:52:09 11:56:16 51° 261° (W) 12:00:26 145.935-145.965
VELOX 1 03 May 11:54:14 11:58:34 49° 100° (E) 12:02:54 145.980
ANTELSAT 03 May 11:55:36 11:59:30 26° 267° (W) 12:03:25 437.575/2403.000
CINEMA 3 03 May 11:58:07 12:01:41 19° 296° (WNW) 12:05:06 145.822/145.860
AAUSAT CUBESAT 2 03 May 12:00:08 12:01:22 11° 298° (WNW) 12:02:24 437.432
RS-15 03 May 12:07:57 12:15:35 24° 103° (ESE) 12:23:51 29.354- 29.394
ISS 03 May 12:09:17 12:11:44 19° 352° (N) 12:14:10 145.825
DELFI C3 03 May 12:12:32 12:15:29 19° 293° (WNW) 12:18:19 145.870
AISAT 03 May 12:15:32 12:20:02 86° 105° (ESE) 12:24:31 437.250
BUGSAT 1 03 May 12:18:51 12:22:34 35° 263° (W) 12:26:20 437.445
50 SAT 03 May 12:19:22 12:23:24 74° 284° (WNW) 12:27:22 437.505
UKube-1 03 May 12:19:35 12:23:45 45° 289° (WNW) 12:27:52 .
SO-50 03 May 12:21:35 12:24:25 15° 327° (NNW) 12:27:10 436.795
QB50P2 03 May 12:22:19 12:25:49 24° 266° (W) 12:29:17 145.880/145.840
SPROUT 03 May 12:22:24 12:24:30 14° 89° (E) 12:26:48 437.525
Cosmos 2504 03 May 12:27:31 12:35:25 40° 88° (E) 12:43:16 435.465 / 435.565
FUNcube-1 03 May 12:29:19 12:32:52 22° 294° (WNW) 12:36:15 145.935
NANOSAT C BR1 03 May 12:34:45 12:37:48 19° 268° (W) 12:40:45 145.865
CUBEBUG 2 03 May 12:36:29 12:39:01 14° 298° (WNW) 12:41:21 437.445
POPSAT HIP 1 03 May 12:42:33 12:45:12 16° 270° (W) 12:47:42 437.405
UWE-3 03 May 12:44:12 12:46:38 14° 298° (WNW) 12:48:52 435.000/436.395/437.385
TISAT 1 03 May 12:53:06 12:56:25 22° 93° (E) 12:59:49 437.305
AIST 1 03 May 12:53:29 12:54:54 11° 275° (W) 12:56:06
ZACube-1 03 May 12:59:58 13:01:40 12° 299° (WNW) 13:03:08 437.345
Oscar 19 03 May 13:02:20 13:06:51 33° 67° (ENE) 13:11:29 437.125/150
CUBEBUG 1 03 May 13:10:23 13:14:39 51° 287° (WNW) 13:18:55 437.445
HUMSAT D 03 May 13:19:40 13:21:40 13° 297° (WNW) 13:23:29 437.325/437.525
ESTCUBE 1 03 May 13:25:30 13:29:32 33° 291° (WNW) 13:33:32 437.505/2401.250
DX 1 03 May 13:28:28 13:28:48 10° 300° (WNW) 13:28:55 434.975-435.025
VELOX 1 03 May 13:31:44 13:34:48 18° 295° (WNW) 13:37:43 145.980
YUBILEINY 03 May 13:37:32 13:40:48 12° 310° (NW) 13:43:26 435.215
Gurwin Techsat 1B 03 May 13:39:00 13:42:49 21° 63° (ENE) 13:46:47 435.225
VERMONT LUNAR 03 May 13:39:15 13:41:58 24° 158° (SSE) 13:44:43 437.305
ISS 03 May 13:46:19 13:48:53 21° 12° (NNE) 13:51:28 145.825
AISAT 03 May 13:54:41 13:56:02 11° 299° (WNW) 13:57:08 437.250
ITUPSAT 1 03 May 13:55:22 13:58:23 17° 90° (E) 14:01:34 437.325
ITAMSAT 1 03 May 13:56:30 14:01:02 32° 67° (ENE) 14:05:38 435.822/435.867
SPROUT 03 May 13:56:45 14:01:01 57° 286° (WNW) 14:05:16 437.525
PHONESAT 2.4 03 May 14:00:46 14:02:51 15° 151° (SSE) 14:05:00 2401.200-2431.200
PCSat 03 May 14:08:41 14:11:08 13° 33° (NNE) 14:13:46 145.827
RS-15 03 May 14:15:44 14:26:39 88° 305° (NW) 14:37:53 29.354- 29.394
BEESAT 03 May 14:19:38 14:23:48 30° 95° (E) 14:28:01 436.000
Cosmos 2504 03 May 14:20:13 14:28:46 49° 286° (WNW) 14:36:59 435.465 / 435.565
SWISSCUBE 03 May 14:23:33 14:27:54 36° 97° (E) 14:32:17 437.505
TISAT 1 03 May 14:28:25 14:32:18 33° 290° (WNW) 14:36:07 437.305
JAS-2 03 May 14:28:41 14:33:01 17° 57° (ENE) 14:37:29 435.910
AO-7 03 May 14:41:01 14:47:26 27° 54° (NE) 14:54:05 29.400- 29.500
Oscar 19 03 May 14:41:33 14:46:12 33° 264° (W) 14:50:51 437.125/150
HORYU 2 03 May 14:52:59 14:55:58 18° 64° (ENE) 14:59:06 437.375
KKS-1 03 May 15:06:34 15:09:25 17° 91° (E) 15:12:26 437.445
VERMONT LUNAR 03 May 15:15:47 15:19:02 52° 174° (S) 15:22:20 437.305
Gurwin Techsat 1B 03 May 15:17:13 15:22:26 56° 260° (W) 15:27:40 435.225
ISS 03 May 15:22:25 15:25:40 69° 31° (NNE) 15:28:55 145.825
ITUPSAT 1 03 May 15:32:01 15:36:41 53° 288° (WNW) 15:41:18 437.325
ITAMSAT 1 03 May 15:35:53 15:40:32 33° 264° (W) 15:45:09 435.822/435.867
PHONESAT 2.4 03 May 15:37:11 15:40:34 42° 166° (SSE) 15:43:59 2401.200-2431.200
STARS 03 May 15:39:07 15:42:39 23° 93° (E) 15:46:16 437.465
PCSat 03 May 15:50:26 15:55:48 60° 55° (NE) 16:01:10 145.827
GONETS M04 03 May 15:56:45 16:05:10 55° 91° (E) 16:13:43
BEESAT 03 May 15:57:28 16:01:38 30° 292° (WNW) 16:05:44 436.000
SWISSCUBE 03 May 16:01:40 16:05:38 26° 294° (WNW) 16:09:31 437.505
JAS-2 03 May 16:09:26 16:17:12 76° 74° (ENE) 16:24:27 435.910
Cosmos 2499 03 May 16:26:07 16:29:48 14° 78° (ENE) 16:34:01 435.465 / 435.565
HORYU 2 03 May 16:27:54 16:32:17 49° 261° (W) 16:36:41 437.375
RS-15 03 May 16:31:02 16:40:47 34° 332° (NNW) 16:50:43 29.354- 29.394
AO-7 03 May 16:31:14 16:39:32 78° 254° (WSW) 16:47:53 29.400- 29.500
MOZHAYETS 4 03 May 16:38:35 16:40:00 12° 87° (E) 16:41:42
KKS-1 03 May 16:42:02 16:46:23 48° 288° (WNW) 16:50:42 437.445
DANDE 03 May 16:47:51 16:51:53 52° 93° (E) 16:57:24 436.750
CUSAT 1 03 May 16:51:35 16:56:02 80° 100° (E) 17:02:09 437.405
VERMONT LUNAR 03 May 16:53:01 16:56:16 46° 190° (S) 16:59:31 437.305
ISS 03 May 16:59:40 17:01:42 15° 227° (SW) 17:03:39 145.825
PHONESAT 2.4 03 May 17:15:04 17:18:35 57° 183° (S) 17:22:06 2401.200-2431.200
STARS 03 May 17:15:08 17:19:12 35° 290° (WNW) 17:23:13 437.465
SO-50 03 May 17:29:02 17:32:55 23° 40° (NE) 17:36:51 436.795
PCSat 03 May 17:34:50 17:38:50 21° 253° (WSW) 17:42:39 145.827
CUTE-I 03 May 17:51:57 17:56:37 33° 67° (ENE) 18:01:22 437.470
GONETS M04 03 May 17:54:31 18:02:28 35° 292° (WNW) 18:10:19
JAS-2 03 May 17:56:50 18:02:52 23° 271° (W) 18:08:20 435.910
Cubesat XI-IV 03 May 18:04:00 18:08:58 43° 69° (ENE) 18:13:59 437.490
Cosmos 2499 03 May 18:13:03 18:21:48 72° 95° (E) 18:30:09 435.465 / 435.565
MOZHAYETS 4 03 May 18:13:17 18:17:52 72° 285° (WNW) 18:22:23
AO-7 03 May 18:29:13 18:33:53 15° 275° (W) 18:37:59 29.400- 29.500
VERMONT LUNAR 03 May 18:30:53 18:33:17 18° 206° (SSW) 18:35:38 437.305
DANDE 03 May 18:32:44 18:36:00 18° 303° (WNW) 18:39:42 436.750
CUSAT 1 03 May 18:37:14 18:40:10 14° 306° (NW) 18:43:12 437.405
CUBESAT XI-V 03 May 18:38:53 18:41:56 18° 90° (E) 18:45:09 437.345
RS-15 03 May 18:49:08 18:57:46 24° 6° (N) 19:06:43 29.354- 29.394
PHONESAT 2.4 03 May 18:53:19 18:56:31 30° 200° (SSW) 18:59:42 2401.200-2431.200
STRAND 1 03 May 19:07:14 19:10:19 16° 89° (E) 19:13:37 437.568
SO-50 03 May 19:09:00 19:13:56 65° 239° (WSW) 19:18:46 436.795
AUBIESAT-1 03 May 19:11:52 19:14:05 15° 95° (E) 19:16:21 437.475
CUTE-I 03 May 19:31:55 19:36:42 33° 264° (W) 19:41:27 437.470
BRITE-PL 03 May 19:37:42 19:40:55 21° 65° (ENE) 19:44:24 437.365/2234.400
Cubesat XI-IV 03 May 19:44:51 19:49:16 26° 267° (W) 19:53:36 437.490
YUBILEINY 03 May 19:46:43 19:51:39 17° 56° (NE) 19:57:01 435.215
PRISM 03 May 20:07:10 20:11:17 82° 102° (ESE) 20:15:23 437.425
CANX-2 03 May 20:08:06 20:11:19 22° 67° (ENE) 20:14:40 2200.000
Cosmos 2499 03 May 20:08:33 20:15:46 27° 295° (WNW) 20:22:27 435.465 / 435.565
HO-68 03 May 20:08:46 20:15:20 41° 64° (ENE) 20:22:01 435.675
DOVE 4 03 May 20:09:27 20:12:43 20° 65° (ENE) 20:16:14 437.250
M-CUBED/EXP-1 PRIME 03 May 20:11:38 20:15:36 84° 291° (WNW) 20:19:12 437.505
O/OREOS (USA 219) 03 May 20:14:09 20:17:08 18° 101° (ESE) 20:20:16 437.305
CUBESAT XI-V 03 May 20:15:14 20:19:42 48° 288° (WNW) 20:24:09 437.345
CUTE 1.7 + AOD 2 03 May 20:15:39 20:19:01 23° 68° (ENE) 20:22:29 437.475
GOMX 1 03 May 20:15:59 20:19:54 33° 69° (ENE) 20:24:08 467.674
COMPASS 1 03 May 20:39:23 20:42:57 28° 69° (ENE) 20:46:36 437.405
STRAND 1 03 May 20:44:59 20:50:02 62° 288° (WNW) 20:55:04 437.568
AUBIESAT-1 03 May 20:45:34 20:49:12 37° 295° (WNW) 20:52:33 437.475
RS-15 03 May 21:03:26 21:14:11 44° 38° (NE) 21:25:29 29.354- 29.394
AAUSAT CUBESAT 2 03 May 21:13:34 21:17:41 56° 74° (ENE) 21:21:50 437.432
BRITE-PL 03 May 21:15:15 21:19:14 37° 264° (W) 21:23:27 437.365/2234.400
SEEDS 03 May 21:18:35 21:22:52 89° 232° (SW) 21:27:11 437.485
CINEMA 3 03 May 21:22:29 21:26:55 56° 73° (ENE) 21:31:35 145.822/145.860
DELFI C3 03 May 21:25:29 21:28:51 26° 69° (ENE) 21:32:17 145.870
Cosmos 2491 03 May 21:36:25 21:43:58 36° 86° (E) 21:51:45 435.465 / 435.565
UKube-1 03 May 21:40:41 21:43:31 18° 65° (ENE) 21:46:28 .
YUBILEINY 03 May 21:41:35 21:50:22 76° 80° (E) 21:59:03 435.215
CANX-2 03 May 21:43:04 21:47:04 36° 263° (W) 21:51:04 2200.000
DOVE 4 03 May 21:45:56 21:50:11 43° 263° (W) 21:54:41 437.250
FUNcube-1 03 May 21:49:01 21:53:04 36° 70° (ENE) 21:57:15 145.935
CUTE 1.7 + AOD 2 03 May 21:50:53 21:54:48 33° 264° (W) 21:58:42 437.475
O/OREOS (USA 219) 03 May 21:51:49 21:56:14 48° 298° (WNW) 22:00:39 437.305
GOMX 1 03 May 21:54:35 21:58:11 24° 268° (W) 22:01:54 467.674
Oscar 11 03 May 21:55:46 22:00:07 77° 76° (ENE) 22:04:30 145.826/435.025
HO-68 03 May 21:56:21 22:03:05 41° 263° (W) 22:09:48 435.675
CUBEBUG 2 03 May 21:56:57 22:01:25 68° 75° (ENE) 22:06:05 437.445
UWE-3 03 May 22:03:41 22:08:07 65° 75° (ENE) 22:12:43 435.000/436.395/437.385
COMPASS 1 03 May 22:14:59 22:18:37 27° 266° (W) 22:22:12 437.405
ZACube-1 03 May 22:17:49 22:22:15 74° 75° (ENE) 22:26:50 437.345
Cosmos 2504 03 May 22:21:29 22:24:32 13° 53° (NE) 22:27:59 435.465 / 435.565
CUBEBUG 1 03 May 22:33:04 22:35:32 16° 64° (ENE) 22:38:10 437.445
HUMSAT D 03 May 22:34:33 22:38:43 53° 73° (ENE) 22:42:58 437.325/437.525
DX 1 03 May 22:45:06 22:49:25 88° 77° (ENE) 22:53:48 434.975-435.025
ESTCUBE 1 03 May 22:49:39 22:53:21 26° 68° (ENE) 22:57:09 437.505/2401.250
AAUSAT CUBESAT 2 03 May 22:51:36 22:53:44 13° 271° (W) 22:55:40 437.432
VELOX 1 03 May 22:52:43 22:56:57 49° 72° (ENE) 23:01:13 145.980
TIGRISAT 03 May 22:55:49 22:59:05 19° 90° (E) 23:02:26 435.000
DELFI C3 03 May 23:00:27 23:03:56 26° 265° (W) 23:07:22 145.870
CINEMA 3 03 May 23:01:47 23:04:36 15° 272° (W) 23:07:18 145.822/145.860
UNISAT 6 03 May 23:04:02 23:07:46 24° 92° (E) 23:11:31 437.425
50 SAT 03 May 23:05:03 23:09:03 71° 75° (ENE) 23:13:07 437.505
AISAT 03 May 23:14:07 23:18:31 86° 74° (ENE) 23:22:58 437.250
DUCHIFAT 1 03 May 23:14:16 23:16:12 13° 89° (E) 23:18:19 145.980
UKube-1 03 May 23:15:11 23:19:21 46° 261° (W) 23:23:31 .
RS-15 03 May 23:16:00 23:27:29 69° 242° (WSW) 23:39:23 29.354- 29.394
SPROUT 03 May 23:18:21 23:20:11 13° 63° (ENE) 23:22:13 437.525
POLYITAN 1 03 May 23:24:07 23:27:01 18° 91° (E) 23:30:02 437.675
FUNcube-1 03 May 23:25:57 23:29:31 23° 268° (W) 23:33:05 145.935
Cosmos 2491 03 May 23:32:05 23:40:35 53° 286° (WNW) 23:49:08 435.465 / 435.565
CUBEBUG 2 03 May 23:36:39 23:38:44 13° 274° (W) 23:40:36 437.445
QB50P1 03 May 23:36:46 23:40:14 24° 94° (E) 23:43:45 145.935-145.965
YUBILEINY 03 May 23:39:48 23:46:22 23° 279° (W) 23:52:32 435.215
UWE-3 03 May 23:43:03 23:45:14 13° 273° (W) 23:47:13 435.000/436.395/437.385
AIST 1 03 May 23:44:06 23:47:57 34° 92° (E) 23:51:51
ANTELSAT 03 May 23:45:52 23:50:31 64° 101° (E) 23:55:04 437.575/2403.000
TISAT 1 03 May 23:46:43 23:49:41 20° 66° (ENE) 23:52:47 437.305
ZACube-1 03 May 23:57:48 23:59:16 11° 274° (W) 00:00:28 437.345
BUGSAT 1 03 May 23:59:56 00:03:36 29° 96° (E) 00:07:19 437.445
QB50P2 04 May 00:05:48 00:10:00 50° 99° (E) 00:14:12 145.880/145.840
CUBEBUG 1 04 May 00:07:17 00:11:31 54° 260° (W) 00:15:47 437.445
Cosmos 2504 04 May 00:12:10 00:19:59 69° 79° (ENE) 00:27:16 435.465 / 435.565
HUMSAT D 04 May 00:12:25 00:14:52 14° 271° (W) 00:17:09 437.325/437.525
NANOSAT C BR1 04 May 00:17:11 00:21:29 65° 101° (E) 00:25:46 145.865
POPSAT HIP 1 04 May 00:24:44 00:29:04 80° 102° (ESE) 00:33:23 437.405
ESTCUBE 1 04 May 00:26:07 00:30:10 31° 264° (W) 00:34:09 437.505/2401.250
VELOX 1 04 May 00:31:01 00:33:51 16° 270° (W) 00:36:31 145.980
TIGRISAT 04 May 00:31:39 00:36:07 45° 289° (WNW) 00:40:28 435.000
UNISAT 6 04 May 00:40:22 00:44:40 36° 290° (WNW) 00:48:50 437.425
DUCHIFAT 1 04 May 00:48:13 00:52:27 58° 287° (WNW) 00:56:39 145.980
SPROUT 04 May 00:51:33 00:55:48 66° 259° (W) 01:00:05 437.525
POLYITAN 1 04 May 00:59:03 01:03:11 43° 288° (WNW) 01:07:15 437.675
ITUPSAT 1 04 May 01:03:04 01:06:45 23° 66° (ENE) 01:10:32 437.325
QB50P1 04 May 01:12:18 01:16:09 32° 290° (WNW) 01:19:57 145.935-145.965
BEESAT 3 04 May 01:13:40 01:17:44 84° 126° (SE) 01:21:54 437.485
TISAT 1 04 May 01:21:19 01:25:14 38° 262° (W) 01:29:12 437.305
AIST 1 04 May 01:22:31 01:25:46 20° 290° (WNW) 01:28:54
ANTELSAT 04 May 01:24:03 01:26:48 15° 297° (WNW) 01:29:21 437.575/2403.000
BEESAT 04 May 01:26:58 01:31:22 39° 70° (ENE) 01:35:49 436.000
BEESAT 2 04 May 01:27:15 01:31:22 85° 301° (WNW) 01:35:33 435.950
SWISSCUBE 04 May 01:30:56 01:35:29 46° 71° (ENE) 01:40:03 437.505
RS-15 04 May 01:31:42 01:38:11 16° 261° (W) 01:43:47 29.354- 29.394
BUGSAT 1 04 May 01:35:29 01:39:00 26° 292° (WNW) 01:42:29 437.445
Cosmos 2491 04 May 01:38:32 01:40:15 10° 312° (NW) 01:41:18 435.465 / 435.565
QB50P2 04 May 01:42:46 01:45:33 16° 295° (WNW) 01:48:11 145.880/145.840
DANDE 04 May 01:44:20 01:48:21 15° 55° (NE) 01:52:59 436.750
CUSAT 1 04 May 01:45:26 01:50:31 18° 57° (ENE) 01:56:04 437.405
AIST 2 04 May 01:47:48 01:51:55 49° 119° (ESE) 01:56:06 435.215
NANOSAT C BR1 04 May 01:54:45 01:56:51 13° 297° (WNW) 01:58:46 145.865
POPSAT HIP 1 04 May 02:03:03 02:04:23 11° 298° (WNW) 02:05:30 437.405
KKS-1 04 May 02:05:58 02:08:57 18° 65° (ENE) 02:12:05 437.445
GONETS M04 04 May 02:06:06 02:13:23 29° 64° (ENE) 02:20:52
Cosmos 2504 04 May 02:06:54 02:12:39 22° 279° (W) 02:17:52 435.465 / 435.565
STARS 04 May 02:37:09 02:40:39 24° 67° (ENE) 02:44:14 437.465
ITUPSAT 1 04 May 02:39:54 02:44:26 41° 262° (W) 02:48:57 437.325
Oscar 19 04 May 02:51:23 02:56:39 82° 105° (ESE) 03:01:50 437.125/150
BEESAT 3 04 May 02:54:00 02:56:22 14° 323° (NW) 02:58:38 437.485
BEESAT 04 May 03:05:30 03:09:22 23° 267° (W) 03:13:09 436.000
BEESAT 2 04 May 03:08:02 03:10:11 13° 324° (NW) 03:12:13 435.950
SWISSCUBE 04 May 03:10:04 03:13:37 20° 268° (W) 03:17:01 437.505
DANDE 04 May 03:25:15 03:33:20 61° 75° (ENE) 03:41:48 436.750
CUSAT 1 04 May 03:26:30 03:34:42 74° 78° (ENE) 03:42:53 437.405
AIST 2 04 May 03:27:24 03:30:47 22° 318° (NW) 03:34:07 435.215
Gurwin Techsat 1B 04 May 03:32:21 03:37:34 55° 100° (E) 03:42:47 435.225
KKS-1 04 May 03:40:59 03:45:17 47° 261° (W) 03:49:36 437.445
MOZHAYETS 4 04 May 03:41:28 03:43:44 14° 63° (ENE) 03:46:12
ITAMSAT 1 04 May 03:46:57 03:52:10 82° 102° (ESE) 03:57:23 435.822/435.867
GONETS M04 04 May 04:02:18 04:11:05 67° 266° (W) 04:19:44
Cosmos 2499 04 May 04:04:48 04:10:39 25° 64° (ENE) 04:16:27 435.465 / 435.565
STARS 04 May 04:12:55 04:16:57 34° 264° (W) 04:20:59 437.465
HORYU 2 04 May 04:18:30 04:22:23 29° 95° (E) 04:26:17 437.375
AO-7 04 May 04:32:07 04:39:27 34° 95° (E) 04:46:55 29.400- 29.500
Oscar 19 04 May 04:32:32 04:35:23 14° 300° (WNW) 04:38:00 437.125/150
JAS-2 04 May 05:04:24 05:10:14 58° 99° (E) 05:15:30 435.910
